Overview Statistics Trail Chart Weather Telemetry Raw packets
 

This is the latest recevied weather packets stored in our database for station/object WP3OF-2. If no packets are shown the sender has not sent any weather packets the latest 10 day(s).

<< 26 27 28 29 30 31 32 >>
Time Temp. Humidity Pressure Rain* Wind** Luminosity Snow
1788458900 23.89° C 94% 1025.2 hPa 0 mm - 222 W/m² -
1788458599 23.89° C 94% 1025.2 hPa 0 mm - 359 W/m² -
1788458294 23.33° C 93% 1025.2 hPa 0 mm - 432 W/m² -
1788457993 23.89° C 94% 1025.2 hPa 0 mm - 320 W/m² -
1788457688 25° C 92% 1025.2 hPa 0 mm - 353 W/m² -
1788457383 25° C 91% 1025.6 hPa 0 mm - 399 W/m² -
1788457083 25° C 90% 1025.2 hPa 0 mm - 957 W/m² -
1788456779 24.44° C 91% 1025.2 hPa 0 mm - 445 W/m² -
1788456474 25° C 88% 1025.6 hPa 0 mm - 981 W/m² -
1788456169 24.44° C 91% 1025.2 hPa 0 mm - 1050 W/m² -
1788455864 24.44° C 90% 1025.6 hPa 0 mm - 822 W/m² -
1788455560 23.89° C 90% 1025.6 hPa 0 mm - 827 W/m² -
1788455258 24.44° C 89% 1025.6 hPa 0 mm - 927 W/m² -
1788454954 23.33° C 91% 1025.6 hPa 0 mm - 1028 W/m² -
1788454652 23.33° C 92% 1026 hPa 0 mm - 341 W/m² -
1788454347 23.33° C 93% 1025.6 hPa 0 mm - 292 W/m² -
1788454041 23.33° C 93% 1026 hPa 0 mm - 286 W/m² -
1788453738 23.33° C 93% 1026 hPa 0 mm - 351 W/m² -
1788453437 23.33° C 93% 1026 hPa 0 mm - 362 W/m² -
1788453133 23.33° C 94% 1026.3 hPa 0 mm - 317 W/m² -
1788452829 23.89° C 93% 1026 hPa 0 mm - 270 W/m² -
1788452524 23.89° C 92% 1026.3 hPa 0 mm - 278 W/m² -
1788452220 23.89° C 91% 1026 hPa 0 mm - 432 W/m² -
1788451909 25° C 88% 1026 hPa 0 mm - 553 W/m² -
1788451605 24.44° C 90% 1026.3 hPa 0 mm - 634 W/m² -

* Rain latest hour (hover to see other rain measurements)
** Current wind speed in m/s (hover to see current wind gust speed)